Date String (YYYY-MM-DD hh:mm:ss) UTC,Instrument flags,absolute air pressure of the measurement (hPa),sample flow rate (lpm),inlet stack bypass flow (lpm),air temperature of the measurement (°C),ambient temperature measured by the external sensor (°C),aerosol sample conditioner tube jacket temperature (°C),OPC LED temperature (°C),internal box temperature (°C),relative humidity of the measurement (%),span deviation,mass concentration of particles derived from Lorenz-Mie calculation of OPC scattering (μg/m³),mass concentration of particles derived from Lorenz-Mie calculation of OPC scattering (μg/m³),mass concentration of particles derived from Lorenz-Mie calculation of OPC scattering (μg/m³)
DateTimeUTC,F1_M11,P_M11,Q1_M11,Q2_M11,T1_M11,T2_M11,T3_M11,T4_M11,T5_M11,U1_M11,ZSPAN_M11,X0_M11,X2_M11,X1_M11
2023-07-14 04:00:00,SystemResetWarning,0830.1,5.00,000.00,028.9,027.0,000.0,037.3,030.5,24.2,0000.0,0014.32,0004.82,0003.83
2023-07-14 04:01:00,SystemResetWarning,0830.1,5.00,000.00,028.9,027.3,000.0,037.3,030.6,24.1,0000.0,0014.58,0004.77,0003.82
2023-07-14 04:02:00,SystemResetWarning,0830.1,5.00,000.00,029.0,027.5,000.0,037.3,030.7,24.1,0000.0,0014.30,0004.73,0003.81
2023-07-14 04:03:00,SystemResetWarning,0830.1,5.00,000.00,029.0,027.7,000.0,037.4,030.7,24.0,0000.0,0012.97,0004.70,0003.79
2023-07-14 04:04:00,SystemResetWarning,0830.1,4.99,000.00,029.1,027.5,000.0,037.4,030.7,24.2,0000.0,0013.26,0004.70,0003.80
2023-07-14 04:05:00,SystemResetWarning,0830.1,4.99,000.00,029.0,025.9,000.0,037.2,030.6,25.0,0000.0,0012.93,0004.73,0003.81
2023-07-14 04:06:00,SystemResetWarning,0830.1,5.02,000.00,029.0,025.2,000.0,037.2,030.4,26.6,0000.0,0013.14,0004.74,0003.81
2023-07-14 04:07:00,SystemResetWarning,0830.1,5.00,000.00,028.9,025.4,000.0,037.2,030.3,25.9,0000.0,0013.18,0004.73,0003.80
2023-07-14 04:08:00,SystemResetWarning,0830.1,4.99,000.00,028.9,025.8,000.0,037.2,030.3,25.7,0000.0,0014.05,0004.76,0003.79
2023-07-14 04:09:00,SystemResetWarning,0830.1,5.00,000.00,028.8,026.2,000.0,037.3,030.3,25.6,0000.0,0014.83,0004.77,0003.78
2023-07-14 04:10:00,SystemResetWarning,0830.1,5.01,000.00,028.9,026.6,000.0,037.3,030.4,25.7,0000.0,0014.18,0004.77,0003.77
2023-07-14 04:11:00,SystemResetWarning,0830.1,5.00,000.00,028.9,026.9,000.0,037.3,030.5,25.7,0000.0,0015.25,0004.79,0003.77
2023-07-14 04:12:00,SystemResetWarning,0830.1,4.99,000.00,028.9,027.2,000.0,037.3,030.6,25.7,0000.0,0015.98,0004.82,0003.77
2023-07-14 04:13:00,SystemResetWarning,0830.1,4.99,000.00,029.0,027.5,000.0,037.4,030.7,25.4,0000.0,0016.08,0004.79,0003.76
2023-07-14 04:14:00,SystemResetWarning,0830.2,5.00,000.00,029.0,027.7,000.0,037.4,030.7,25.2,0000.0,0016.01,0004.76,0003.76
2023-07-14 04:15:00,SystemResetWarning,0830.3,5.01,000.00,029.1,027.9,000.0,037.4,030.8,24.9,0000.0,0015.71,0004.76,0003.75
2023-07-14 04:16:00,SystemResetWarning,0830.2,5.00,000.00,029.1,027.9,000.0,037.4,030.8,24.2,0000.0,0016.05,0004.75,0003.74
2023-07-14 04:17:00,SystemResetWarning,0830.2,4.98,000.00,029.1,026.4,000.0,037.3,030.7,24.3,0000.0,0015.62,0004.68,0003.73
2023-07-14 04:18:00,SystemResetWarning,0830.1,5.00,000.00,029.0,025.3,000.0,037.2,030.5,24.3,0000.0,0015.51,0004.64,0003.72
2023-07-14 04:19:00,SystemResetWarning,0830.1,5.01,000.00,028.9,025.4,000.0,037.2,030.3,24.5,0000.0,0015.01,0004.65,0003.72
2023-07-14 04:20:00,SystemResetWarning,0830.1,5.00,000.00,028.9,025.7,000.0,037.3,030.3,24.5,0000.0,0014.04,0004.61,0003.72
2023-07-14 04:21:00,SystemResetWarning,0830.2,5.00,000.00,028.9,026.1,000.0,037.3,030.3,24.4,0000.0,0013.84,0004.55,0003.71
2023-07-14 04:22:00,SystemResetWarning,0830.2,4.99,000.00,028.9,026.5,000.0,037.3,030.4,24.3,0000.0,0013.09,0004.58,0003.71
2023-07-14 04:23:00,SystemResetWarning,0830.3,5.00,000.00,028.9,026.8,000.0,037.3,030.5,24.1,0000.0,0012.29,0004.53,0003.71
2023-07-14 04:24:00,SystemResetWarning,0830.2,5.00,000.00,029.0,027.1,000.0,037.4,030.6,23.8,0000.0,0012.08,0004.52,0003.70
2023-07-14 04:25:00,SystemResetWarning,0830.3,4.99,000.00,029.0,027.4,000.0,037.4,030.7,23.8,0000.0,0013.06,0004.49,0003.71
2023-07-14 04:26:00,SystemResetWarning,0830.3,5.00,000.00,029.0,027.6,000.0,037.4,030.7,23.2,0000.0,0013.19,0004.45,0003.71
2023-07-14 04:27:00,SystemResetWarning,0830.3,5.01,000.00,029.1,027.8,000.0,037.4,030.8,23.1,0000.0,0012.52,0004.44,0003.71
2023-07-14 04:28:00,SystemResetWarning,0830.3,5.00,000.00,029.1,027.6,000.0,037.4,030.8,23.2,0000.0,0012.29,0004.50,0003.73
2023-07-14 04:29:00,SystemResetWarning,0830.2,4.98,000.00,029.1,025.9,000.0,037.3,030.6,23.0,0000.0,0012.22,0004.52,0003.74
2023-07-14 04:30:00,SystemResetWarning,0830.1,5.01,000.00,029.0,025.3,000.0,037.2,030.4,23.0,0000.0,0012.29,0004.48,0003.74
2023-07-14 04:31:00,SystemResetWarning,0830.1,5.01,000.00,028.9,025.4,000.0,037.2,030.2,23.0,0000.0,0012.69,0004.47,0003.75
2023-07-14 04:32:00,SystemResetWarning,0830.1,5.00,000.00,028.9,025.8,000.0,037.3,030.2,22.8,0000.0,0012.26,0004.51,0003.75
2023-07-14 04:33:00,SystemResetWarning,0830.1,4.99,000.00,028.9,026.2,000.0,037.3,030.3,22.7,0000.0,0011.67,0004.50,0003.77
2023-07-14 04:34:00,SystemResetWarning,0830.1,4.99,000.00,028.9,026.6,000.0,037.3,030.4,22.7,0000.0,0011.07,0004.50,0003.77
2023-07-14 04:35:00,SystemResetWarning,0830.1,5.00,000.00,028.9,026.9,000.0,037.4,030.5,22.4,0000.0,0011.43,0004.52,0003.78
2023-07-14 04:36:00,SystemResetWarning,0830.1,5.00,000.00,029.0,027.2,000.0,037.4,030.6,22.8,0000.0,0010.84,0004.51,0003.78
2023-07-14 04:37:00,SystemResetWarning,0830.1,5.00,000.00,029.0,027.5,000.0,037.4,030.7,22.6,0000.0,0010.38,0004.51,0003.76
2023-07-14 04:38:00,SystemResetWarning,0830.2,5.01,000.00,029.0,027.7,000.0,037.4,030.7,22.3,0000.0,0010.49,0004.49,0003.74
2023-07-14 04:39:00,SystemResetWarning,0830.1,5.00,000.00,029.1,027.8,000.0,037.4,030.8,22.7,0000.0,0011.53,0004.48,0003.72
2023-07-14 04:40:00,SystemResetWarning,0830.1,4.99,000.00,029.1,027.9,000.0,037.4,030.8,22.2,0000.0,0012.12,0004.45,0003.70
2023-07-14 04:41:00,SystemResetWarning,0830.1,4.99,000.00,029.1,026.4,000.0,037.3,030.7,22.4,0000.0,0012.40,0004.43,0003.68
2023-07-14 04:42:00,SystemResetWarning,0830.1,5.01,000.00,029.1,025.3,000.0,037.2,030.5,22.3,0000.0,0012.63,0004.41,0003.65
2023-07-14 04:43:00,SystemResetWarning,0830.0,5.00,000.00,029.0,025.4,000.0,037.2,030.3,22.4,0000.0,0012.65,0004.39,0003.62
2023-07-14 04:44:00,SystemResetWarning,0830.0,4.99,000.00,028.9,025.7,000.0,037.3,030.3,22.5,0000.0,0013.06,0004.37,0003.59
2023-07-14 04:45:00,SystemResetWarning,0830.0,5.00,000.00,028.9,026.1,000.0,037.3,030.4,22.5,0000.0,0013.16,0004.34,0003.56
2023-07-14 04:46:00,SystemResetWarning,0830.0,5.01,000.00,028.9,026.5,000.0,037.4,030.4,22.2,0000.0,0012.81,0004.30,0003.55
2023-07-14 04:47:00,SystemResetWarning,0830.0,5.00,000.00,028.9,026.9,000.0,037.4,030.5,22.0,0000.0,0012.77,0004.33,0003.54
2023-07-14 04:48:00,SystemResetWarning,0830.0,4.98,000.00,029.0,027.2,000.0,037.4,030.6,22.0,0000.0,0012.65,0004.34,0003.52
2023-07-14 04:49:00,SystemResetWarning,0830.0,5.00,000.00,029.0,027.4,000.0,037.4,030.7,21.9,0000.0,0012.49,0004.32,0003.51
2023-07-14 04:50:00,SystemResetWarning,0830.0,5.00,000.00,029.0,027.6,000.0,037.4,030.7,22.1,0000.0,0011.49,0004.27,0003.49
2023-07-14 04:51:00,SystemResetWarning,0830.0,5.00,000.00,029.1,027.8,000.0,037.5,030.8,22.2,0000.0,0011.24,0004.24,0003.48
2023-07-14 04:52:00,SystemResetWarning,0830.0,5.00,000.00,029.1,028.0,000.0,037.5,030.8,22.2,0000.0,0011.50,0004.23,0003.47
2023-07-14 04:53:00,SystemResetWarning,0830.0,5.00,000.00,029.2,027.8,000.0,037.5,030.9,22.2,0000.0,0010.66,0004.21,0003.47
2023-07-14 04:54:00,SystemResetWarning,0830.0,5.00,000.00,029.2,026.1,000.0,037.4,030.7,22.1,0000.0,0010.76,0004.18,0003.47
2023-07-14 04:55:00,SystemResetWarning,0830.0,5.01,000.00,029.1,025.4,000.0,037.3,030.5,21.9,0000.0,0010.23,0004.13,0003.46
2023-07-14 04:56:00,SystemResetWarning,0830.0,5.00,000.00,029.0,025.5,000.0,037.3,030.3,22.0,0000.0,0010.15,0004.11,0003.46
2023-07-14 04:57:00,SystemResetWarning,0830.0,4.99,000.00,029.0,025.9,000.0,037.4,030.3,22.0,0000.0,0010.24,0004.14,0003.45
2023-07-14 04:58:00,SystemResetWarning,0830.1,5.00,000.00,029.0,026.3,000.0,037.4,030.4,22.1,0000.0,0010.07,0004.15,0003.44
2023-07-14 04:59:00,SystemResetWarning,0830.0,5.01,000.00,029.0,026.6,000.0,037.4,030.5,21.7,0000.0,0010.82,0004.12,0003.43
